When you browse on this site, cookies collect data to enhance your experience and personalize the content and advertising you see.
Visit our Privacy Policy to learn more. By continuing to use the site, you agree to this use of cookies and data.
  • In Spain
  • List of Countries
  • For 7 days
  • Water Temperature
  • Satellite Maps
  • Weather Map
  • Weather Widgets
  • user-avatar
    Login

    Hourly Weather Wiktoria

    Today, 21 November, Wednesday

    Time Temperature Precipitation Wind Pressure Humidity
    00:00 +18°C° 0.7 mm 4 mps 739 mmHg 88%
    01:00 +18°C° 0.7 mm 4 mps 738 mmHg 89%
    02:00 +17°C° 0.1 mm 4 mps 738 mmHg 90%
    03:00 +16°C° 0.1 mm 3 mps 739 mmHg 90%
    04:00 +14°C° 0 mm 3 mps 739 mmHg 90%
    05:00 +14°C° 0 mm 3 mps 739 mmHg 88%
    06:00 +14°C° 0 mm 3 mps 739 mmHg 86%
    07:00 +14°C° 0 mm 3 mps 740 mmHg 85%
    08:00 +16°C° 0 mm 3 mps 739 mmHg 74%
    09:00 +18°C° 0 mm 3 mps 739 mmHg 63%
    10:00 +19°C° 0 mm 3 mps 739 mmHg 57%
    11:00 +20°C° 0 mm 4 mps 739 mmHg 49%
    12:00 +22°C° 0 mm 4 mps 738 mmHg 41%
    13:00 +23°C° 0 mm 5 mps 738 mmHg 34%
    14:00 +23°C° 0 mm 5 mps 737 mmHg 34%
    15:00 +23°C° 0 mm 5 mps 736 mmHg 34%
    16:00 +22°C° 0 mm 5 mps 736 mmHg 37%
    17:00 +21°C° 0.1 mm 4 mps 736 mmHg 42%
    18:00 +19°C° 0.1 mm 4 mps 736 mmHg 48%
    19:00 +18°C° 0.1 mm 3 mps 736 mmHg 54%
    20:00 +17°C° 0.7 mm 3 mps 736 mmHg 65%
    21:00 +14°C° 0.7 mm 3 mps 737 mmHg 76%
    22:00 +12°C° 0.7 mm 3 mps 737 mmHg 87%
    23:00 +12°C° 0.7 mm 3 mps 737 mmHg 86%

    Tomorrow, 22 November, Thursday

    Time Temperature Precipitation Wind Pressure Humidity
    00:00 +11°C° 0.7 mm 3 mps 737 mmHg 85%
    01:00 +10°C° 0.7 mm 2 mps 737 mmHg 85%
    02:00 +9°C° 0.2 mm 3 mps 737 mmHg 82%
    03:00 +9°C° 0.2 mm 3 mps 736 mmHg 79%
    04:00 +8°C° 0.2 mm 3 mps 736 mmHg 77%
    05:00 +7°C° 0.2 mm 4 mps 736 mmHg 77%
    06:00 +8°C° 0.2 mm 4 mps 736 mmHg 76%
    07:00 +8°C° 0.2 mm 4 mps 735 mmHg 76%
    08:00 +10°C° 0.9 mm 4 mps 735 mmHg 76%
    09:00 +10°C° 0.9 mm 4 mps 735 mmHg 76%
    10:00 +11°C° 0.9 mm 4 mps 735 mmHg 76%
    11:00 +12°C° 0.9 mm 5 mps 735 mmHg 72%
    12:00 +13°C° 0.9 mm 5 mps 735 mmHg 67%
    13:00 +15°C° 0.9 mm 6 mps 735 mmHg 62%
    14:00 +15°C° 0.5 mm 6 mps 735 mmHg 61%
    15:00 +15°C° 0.5 mm 6 mps 736 mmHg 59%
    16:00 +15°C° 0.5 mm 6 mps 736 mmHg 57%
    17:00 +14°C° 0.3 mm 5 mps 737 mmHg 64%
    18:00 +13°C° 0.3 mm 5 mps 737 mmHg 71%
    19:00 +11°C° 0.3 mm 4 mps 738 mmHg 78%
    20:00 +10°C° 0 mm 5 mps 739 mmHg 80%
    21:00 +10°C° 0 mm 5 mps 740 mmHg 82%
    22:00 +10°C° 0 mm 6 mps 740 mmHg 84%
    23:00 +9°C° 0 mm 6 mps 741 mmHg 84%

    Day after tomorrow, 23 November, Friday

    Time Temperature Precipitation Wind Pressure Humidity
    00:00 +9°C° 0 mm 5 mps 741 mmHg 84%
    01:00 +8°C° 0 mm 5 mps 741 mmHg 83%
    02:00 +8°C° 0 mm 5 mps 741 mmHg 84%
    03:00 +7°C° 0 mm 5 mps 742 mmHg 85%
    04:00 +7°C° 0 mm 5 mps 742 mmHg 86%
    05:00 +8°C° 0 mm 5 mps 742 mmHg 81%
    06:00 +9°C° 0 mm 6 mps 743 mmHg 76%
    07:00 +10°C° 0 mm 6 mps 743 mmHg 71%
    08:00 +11°C° 0 mm 6 mps 743 mmHg 66%
    09:00 +13°C° 0 mm 6 mps 743 mmHg 60%
    10:00 +15°C° 0 mm 6 mps 743 mmHg 54%
    11:00 +14°C° 0.1 mm 6 mps 743 mmHg 58%
    12:00 +14°C° 0.1 mm 5 mps 743 mmHg 61%
    13:00 +13°C° 0.1 mm 5 mps 743 mmHg 65%
    14:00 +13°C° 0.2 mm 5 mps 743 mmHg 68%
    15:00 +13°C° 0.2 mm 5 mps 743 mmHg 71%
    16:00 +12°C° 0.2 mm 5 mps 742 mmHg 74%
    17:00 +12°C° 0.1 mm 5 mps 743 mmHg 76%
    18:00 +12°C° 0.1 mm 5 mps 743 mmHg 77%
    19:00 +12°C° 0.1 mm 5 mps 743 mmHg 79%
    20:00 +12°C° 0 mm 5 mps 744 mmHg 80%
    21:00 +12°C° 0 mm 5 mps 744 mmHg 81%
    22:00 +10°C° 0 mm 5 mps 744 mmHg 83%
    23:00 +10°C° 0 mm 5 mps 744 mmHg 84%

    24 November, Saturday

    Time Temperature Precipitation Wind Pressure Humidity
    00:00 +10°C° 0 mm 5 mps 744 mmHg 85%
    01:00 +10°C° 0 mm 5 mps 744 mmHg 86%
    02:00 +10°C° 0 mm 5 mps 744 mmHg 87%
    03:00 +10°C° 0 mm 5 mps 744 mmHg 87%
    04:00 +11°C° 0 mm 4 mps 744 mmHg 87%
    05:00 +12°C° 0 mm 5 mps 744 mmHg 83%
    06:00 +12°C° 0 mm 5 mps 744 mmHg 79%
    07:00 +13°C° 0 mm 6 mps 744 mmHg 75%
    08:00 +15°C° 0 mm 6 mps 744 mmHg 68%
    09:00 +16°C° 0 mm 6 mps 744 mmHg 62%
    10:00 +17°C° 0 mm 6 mps 745 mmHg 55%
    11:00 +19°C° 0 mm 5 mps 744 mmHg 54%
    12:00 +19°C° 0 mm 5 mps 744 mmHg 52%
    13:00 +20°C° 0 mm 5 mps 744 mmHg 51%
    14:00 +20°C° 0 mm 5 mps 743 mmHg 51%
    15:00 +20°C° 0 mm 5 mps 743 mmHg 51%
    16:00 +20°C° 0 mm 5 mps 743 mmHg 51%
    17:00 +19°C° 0 mm 4 mps 743 mmHg 57%
    18:00 +17°C° 0 mm 4 mps 743 mmHg 62%
    19:00 +15°C° 0 mm 4 mps 744 mmHg 67%
    20:00 +13°C° 0 mm 3 mps 744 mmHg 73%
    21:00 +12°C° 0 mm 3 mps 744 mmHg 79%
    22:00 +12°C° 0 mm 2 mps 744 mmHg 86%
    23:00 +10°C° 0 mm 2 mps 744 mmHg 88%

    25 November, Sunday

    Time Temperature Precipitation Wind Pressure Humidity
    00:00 +10°C° 0 mm 2 mps 743 mmHg 90%
    01:00 +9°C° 0 mm 2 mps 743 mmHg 92%
    02:00 +9°C° 0 mm 2 mps 743 mmHg 92%
    03:00 +9°C° 0 mm 2 mps 742 mmHg 91%
    04:00 +9°C° 0 mm 2 mps 742 mmHg 91%
    05:00 +10°C° 0 mm 2 mps 742 mmHg 87%
    06:00 +12°C° 0 mm 2 mps 742 mmHg 83%
    07:00 +13°C° 0 mm 2 mps 742 mmHg 79%
    08:00 +15°C° 0 mm 2 mps 742 mmHg 70%
    09:00 +17°C° 0 mm 2 mps 742 mmHg 61%
    10:00 +19°C° 0 mm 3 mps 742 mmHg 52%
    11:00 +21°C° 0 mm 3 mps 741 mmHg 48%
    12:00 +22°C° 0 mm 3 mps 741 mmHg 43%
    13:00 +25°C° 0 mm 3 mps 740 mmHg 38%
    14:00 +25°C° 0 mm 4 mps 740 mmHg 38%
    15:00 +25°C° 0 mm 4 mps 740 mmHg 38%
    16:00 +26°C° 0 mm 4 mps 739 mmHg 38%
    17:00 +23°C° 0 mm 4 mps 740 mmHg 45%
    18:00 +21°C° 0 mm 4 mps 740 mmHg 51%
    19:00 +19°C° 0 mm 4 mps 740 mmHg 58%
    20:00 +18°C° 0 mm 4 mps 741 mmHg 64%
    21:00 +15°C° 0 mm 4 mps 741 mmHg 70%
    22:00 +14°C° 0 mm 4 mps 742 mmHg 76%
    23:00 +13°C° 0 mm 3 mps 742 mmHg 81%

    26 November, Monday

    Time Temperature Precipitation Wind Pressure Humidity
    00:00 +12°C° 0 mm 3 mps 742 mmHg 85%
    01:00 +13°C° 0 mm 2 mps 742 mmHg 89%
    02:00 +12°C° 0 mm 2 mps 742 mmHg 90%
    03:00 +12°C° 0 mm 2 mps 742 mmHg 92%
    04:00 +10°C° 0 mm 2 mps 742 mmHg 93%
    05:00 +13°C° 0 mm 2 mps 742 mmHg 87%
    06:00 +14°C° 0 mm 1 mps 743 mmHg 81%
    07:00 +15°C° 0 mm 1 mps 743 mmHg 75%
    08:00 +19°C° 0 mm 1 mps 743 mmHg 66%
    09:00 +20°C° 0 mm 2 mps 742 mmHg 57%
    10:00 +23°C° 0 mm 2 mps 742 mmHg 48%
    11:00 +24°C° 0 mm 2 mps 742 mmHg 43%
    12:00 +26°C° 0 mm 2 mps 741 mmHg 39%
    13:00 +27°C° 0 mm 3 mps 740 mmHg 34%
    14:00 +27°C° 0 mm 3 mps 740 mmHg 34%
    15:00 +27°C° 0 mm 3 mps 740 mmHg 34%
    16:00 +28°C° 0 mm 3 mps 739 mmHg 34%
    17:00 +26°C° 0 mm 2 mps 739 mmHg 39%
    18:00 +24°C° 0 mm 2 mps 739 mmHg 44%
    19:00 +23°C° 0 mm 1 mps 739 mmHg 49%
    20:00 +21°C° 0 mm 1 mps 739 mmHg 53%
    21:00 +19°C° 0 mm 2 mps 739 mmHg 57%
    22:00 +17°C° 0 mm 2 mps 739 mmHg 61%
    23:00 +17°C° 0 mm 2 mps 738 mmHg 64%
    Show more